Notices

What's New in latest Release from April 7th, 2021:

- Updated Glossary, including Speed of Maximum Gust, and Total Hourly Precipitation

- Updated national and regional climate services offices contacts and prices information

- Addition of station inventory lists for 1981-2010, 1971-2000, and 1961-1990 Normals.

If you haven't already, please take our survey and provide feedback about our website: https://eccc.sondage-survey.ca/f/LanguageSelection.aspx?s=442ca660-fcf1-47c0-95a9-59707d6fd709

Hourly Data Report for April 15, 2012

MIRAMICHI RCS
NEW BRUNSWICK

47°00'34.000" N
65°27'54.000" W
33.00 m
8100989
71744
ACQ

Download Data

Hourly Data (April 2012)
Hourly Data Report for April 15, 2012
TIME
LST
Temp Definition
°C
Dew Point Definition
°C
Rel Hum Definition
%
Precip. Amount Definition
mm

Wind Dir Definition
10's deg

Wind Spd Definition
km/h
Visibility Definition
km
Stn Press Definition
kPa
Hmdx Definition


Wind Chill Definition


Weather Definition


00:00 -0.3 -5.3 69   28 2   100.99   -1 LegendNANA
01:00 0.3 -5.2 67   27 6   101.02     LegendNANA
02:00 -0.7 -5.2 72   27 4   101.05   -2 LegendNANA
03:00 0.0 -3.9 75   27 6   101.06   -2 LegendNANA
04:00 -1.6 -5.4 75     0   101.06     LegendNANA
05:00 -1.8 -5.0 79     0   101.07     LegendNANA
06:00 -1.3 -4.6 78     0   101.11     LegendNANA
07:00 1.4 -3.4 70     0   101.17     LegendNANA
08:00 4.1 -2.8 61     0   101.18     LegendNANA
09:00 6.9 -4.1 45   8 6   101.15     LegendNANA
10:00 11.9 -3.4 34   9 9   101.11     LegendNANA
11:00 15.5 -8.0 19   15 15   101.05     LegendNANA
12:00 15.2 -3.4 28   10 7   101.00     LegendNANA
13:00 14.1 -2.0 33   4 7   100.94     LegendNANA
14:00 17.0 -3.4 25   21 11   100.88     LegendNANA
15:00 15.8 -0.4 33   32 7   100.86     LegendNANA
16:00 13.6 -0.2 39   5 11   100.89     LegendNANA
17:00 14.0 1.6 43   8 9   100.91     LegendNANA
18:00 15.3 1.9 40   21 4   100.95     LegendNANA
19:00 13.5 3.6 51   23 4   100.95     LegendNANA
20:00 11.7 3.3 56   4 4   100.95     LegendNANA
21:00 9.1 3.4 67   12 2   100.99     LegendNANA
22:00 12.4 1.4 47   20 13   101.00     LegendNANA
23:00 12.2 0.7 45   21 13   101.05     LegendNANA

Notes on Data Quality.

Legend

  • E = Estimated
  • M = Missing
  • NA = Not Available*
  • [empty] = Indicates an unobserved value
Date modified: